Location: Pcim
(49.7500°N, 19.9670°E)
Time: 00:28:55
(UTC+02:00)

CUBEBUG 2 - Visible Passes

Search period start: 25 April 2024 00:00
Search period end: 05 May 2024 00:00
Orbit: 570 x 672 km, 97.8° (Epoch: 24 April)

Date Brightness Start Highest point End Pass type
(mag) Time Alt. Az. Time Alt. Az. Time Alt. Az.
25 Apr ? 02:46:48 10° NNE 02:50:52 62° E 02:52:03 42° SSE visible
25 Apr ? 04:24:01 10° NNW 04:26:37 16° WNW 04:29:14 10° W visible
26 Apr ? 01:30:43 10° ENE 01:31:42 11° E 01:32:41 10° E visible
26 Apr ? 03:04:18 10° NNE 03:08:26 87° WNW 03:09:53 40° SSW visible
26 Apr ? 04:42:26 10° NW 04:43:57 12° WNW 04:45:28 10° WNW visible
27 Apr ? 01:46:49 10° NE 01:49:26 16° E 01:50:32 15° ESE visible
27 Apr ? 03:21:53 10° N 03:25:56 58° WNW 03:27:42 31° SW visible
28 Apr ? 02:03:44 10° NE 02:07:06 23° E 02:08:19 21° ESE visible
28 Apr ? 03:39:31 10° N 03:43:23 39° WNW 03:45:30 22° WSW visible
29 Apr ? 02:20:54 10° NNE 02:24:42 34° E 02:26:06 27° SE visible
29 Apr ? 03:57:15 10° N 04:00:46 27° WNW 04:03:18 16° WSW visible
30 Apr ? 02:38:10 10° NNE 02:42:14 51° E 02:43:52 32° SSE visible
30 Apr ? 04:15:04 10° NNW 04:18:05 20° WNW 04:21:03 10° WSW visible
01 May ? 02:55:33 10° NNE 02:59:43 78° ESE 03:01:36 32° S visible
01 May ? 04:33:06 10° NNW 04:35:20 14° WNW 04:37:35 10° W visible
02 May ? 01:38:24 10° ENE 01:40:32 14° E 01:42:08 12° ESE visible
02 May ? 03:12:58 10° N 03:17:08 71° WNW 03:19:19 28° SSW visible
03 May ? 01:55:01 10° NE 01:58:07 20° E 01:59:50 16° ESE visible
03 May ? 03:30:28 10° N 03:34:30 48° WNW 03:37:01 21° SW visible
04 May ? 02:11:58 10° NE 02:15:39 29° E 02:17:30 21° SE visible
04 May ? 03:48:02 10° N 03:51:48 33° WNW 03:54:41 16° SW visible
